| time (UTC) | temp F | wind direction | speed MPH | gust MPH | rain 1hr in | rain 24hr in | rain mn in | humidity % | barometer mb |
| 20260505234715 | 85 | 159 | 1.0 | 3.0 | 0.00 | 0.00 | 0.00 | 70 | 1006.3 |
| 20260505234212 | 85 | 260 | 0.0 | 4.0 | 0.00 | 0.00 | 0.00 | 70 | 1006.3 |
| 20260505233708 | 85 | 288 | 0.0 | 4.0 | 0.00 | 0.00 | 0.00 | 70 | 1006.1 |
| 20260505233207 | 85 | 135 | 6.0 | 6.0 | 0.00 | 0.00 | 0.00 | 69 | 1006.2 |
| 20260505232704 | 86 | 234 | 3.0 | 4.0 | 0.00 | 0.00 | 0.00 | 68 | 1006.1 |
| 20260505232201 | 86 | 189 | 2.0 | 3.0 | 0.00 | 0.00 | 0.00 | 69 | 1006.2 |
| 20260505231658 | 86 | 249 | 1.0 | 4.0 | 0.00 | 0.00 | 0.00 | 68 | 1006.1 |
| 20260505231157 | 86 | 213 | 3.0 | 5.0 | 0.00 | 0.00 | 0.00 | 67 | 1006.0 |
| 20260505230654 | 86 | 137 | 1.0 | 5.0 | 0.00 | 0.00 | 0.00 | 67 | 1006.0 |
| 20260505230151 | 87 | 246 | 4.0 | 6.0 | 0.00 | 0.00 | 0.00 | 66 | 1006.1 |
| 20260505225647 | 87 | 290 | 1.0 | 5.0 | 0.00 | 0.00 | 0.00 | 67 | 1006.0 |
| 20260505225143 | 86 | 154 | 3.0 | 4.0 | 0.00 | 0.00 | 0.00 | 67 | 1005.9 |
| 20260505224639 | 87 | 168 | 4.0 | 8.0 | 0.00 | 0.00 | 0.00 | 67 | 1006.1 |
| 20260505224138 | 87 | 291 | 2.0 | 4.0 | 0.00 | 0.00 | 0.00 | 65 | 1006.2 |
| 20260505223635 | 87 | 221 | 2.0 | 4.0 | 0.00 | 0.00 | 0.00 | 65 | 1006.5 |
| 20260505223131 | 86 | 186 | 3.0 | 5.0 | 0.00 | 0.00 | 0.00 | 67 | 1006.4 |
| 20260505222627 | 86 | 210 | 3.0 | 4.0 | 0.00 | 0.00 | 0.00 | 68 | 1006.3 |
| 20260505222123 | 86 | 286 | 1.0 | 3.0 | 0.00 | 0.00 | 0.00 | 68 | 1006.7 |
| 20260505221620 | 87 | 274 | 1.0 | 4.0 | 0.00 | 0.00 | 0.00 | 66 | 1006.5 |
| 20260505221117 | 87 | 280 | 1.0 | 3.0 | 0.00 | 0.00 | 0.00 | 67 | 1006.4 |
| 20260505220614 | 87 | 263 | 2.0 | 3.0 | 0.00 | 0.00 | 0.00 | 67 | 1006.3 |
| 20260505220112 | 86 | 311 | 3.0 | 5.0 | 0.00 | 0.00 | 0.00 | 67 | 1006.4 |
| 20260505215609 | 86 | 181 | 3.0 | 4.0 | 0.00 | 0.00 | 0.00 | 65 | 1006.4 |
| 20260505215108 | 87 | 278 | 2.0 | 5.0 | 0.00 | 0.00 | 0.00 | 66 | 1006.4 |
| 20260505214605 | 87 | 271 | 3.0 | 7.0 | 0.00 | 0.00 | 0.00 | 65 | 1006.9 |
| 20260505214102 | 88 | 254 | 2.0 | 5.0 | 0.00 | 0.00 | 0.00 | 64 | 1006.6 |
| 20260505213600 | 88 | 278 | 1.0 | 4.0 | 0.00 | 0.00 | 0.00 | 65 | 1006.8 |
| 20260505213056 | 86 | 25 | 1.0 | 5.0 | 0.00 | 0.00 | 0.00 | 66 | 1006.9 |
| 20260505212552 | 86 | 242 | 1.0 | 7.0 | 0.00 | 0.00 | 0.00 | 67 | 1007.2 |
| 20260505212050 | 86 | 277 | 3.0 | 4.0 | 0.00 | 0.00 | 0.00 | 67 | 1007.2 |
| 20260505211546 | 86 | 207 | 0.0 | 5.0 | 0.00 | 0.00 | 0.00 | 67 | 1007.4 |
| 20260505211043 | 86 | 52 | 2.0 | 5.0 | 0.00 | 0.00 | 0.00 | 68 | 1007.2 |
| 20260505210540 | 86 | 287 | 3.0 | 4.0 | 0.00 | 0.00 | 0.00 | 67 | 1007.2 |
| 20260505210037 | 86 | 197 | 1.0 | 4.0 | 0.00 | 0.00 | 0.00 | 67 | 1007.1 |
| 20260505205535 | 85 | 219 | 4.0 | 8.0 | 0.00 | 0.00 | 0.00 | 68 | 1007.3 |
| 20260505205032 | 85 | 293 | 2.0 | 4.0 | 0.00 | 0.00 | 0.00 | 69 | 1007.5 |
| 20260505204530 | 86 | 295 | 3.0 | 3.0 | 0.00 | 0.00 | 0.00 | 68 | 1007.5 |
| 20260505204027 | 86 | 254 | 3.0 | 5.0 | 0.00 | 0.00 | 0.00 | 66 | 1007.5 |
| 20260505203523 | 86 | 290 | 3.0 | 4.0 | 0.00 | 0.00 | 0.00 | 66 | 1007.7 |
| 20260505203020 | 87 | 262 | 3.0 | 7.0 | 0.00 | 0.00 | 0.00 | 65 | 1007.8 |
| 20260505202516 | 87 | 278 | 2.0 | 5.0 | 0.00 | 0.00 | 0.00 | 66 | 1007.6 |
| 20260505202012 | 87 | 332 | 4.0 | 8.0 | 0.00 | 0.00 | 0.00 | 66 | 1007.6 |
| 20260505201510 | 87 | 318 | 2.0 | 5.0 | 0.00 | 0.00 | 0.00 | 64 | 1007.8 |
| 20260505201007 | 86 | 322 | 1.0 | 6.0 | 0.00 | 0.00 | 0.00 | 66 | 1007.8 |
| 20260505200505 | 85 | 342 | 1.0 | 6.0 | 0.00 | 0.00 | 0.00 | 68 | 1007.9 |
| 20260505200001 | 85 | 229 | 2.0 | 4.0 | 0.00 | 0.00 | 0.00 | 69 | 1008.1 |
| 20260505195458 | 84 | 224 | 2.0 | 6.0 | 0.00 | 0.00 | 0.00 | 70 | 1008.2 |
| 20260505194955 | 84 | 285 | 3.0 | 4.0 | 0.00 | 0.00 | 0.00 | 71 | 1008.2 |
| 20260505194453 | 84 | 348 | 3.0 | 7.0 | 0.00 | 0.00 | 0.00 | 71 | 1008.1 |
| 20260505193952 | 85 | 188 | 3.0 | 5.0 | 0.00 | 0.00 | 0.00 | 69 | 1008.2 |
| 20260505193450 | 85 | 159 | 4.0 | 4.0 | 0.00 | 0.00 | 0.00 | 70 | 1008.3 |
| 20260505192947 | 84 | 266 | 2.0 | 5.0 | 0.00 | 0.00 | 0.00 | 73 | 1008.5 |
| 20260505192446 | 83 | 322 | 2.0 | 3.0 | 0.00 | 0.00 | 0.00 | 72 | 1008.5 |
| 20260505191943 | 83 | 294 | 5.0 | 5.0 | 0.00 | 0.00 | 0.00 | 72 | 1008.6 |
| 20260505191442 | 83 | 306 | 2.0 | 4.0 | 0.00 | 0.00 | 0.00 | 73 | 1008.6 |
| 20260505190938 | 82 | 214 | 2.0 | 4.0 | 0.00 | 0.00 | 0.00 | 73 | 1008.7 |
| 20260505190433 | 83 | 250 | 0.0 | 6.0 | 0.00 | 0.00 | 0.00 | 73 | 1009.0 |
| 20260505185929 | 82 | 310 | 2.0 | 4.0 | 0.00 | 0.00 | 0.00 | 73 | 1008.7 |
| 20260505185427 | 82 | 193 | 0.0 | 3.0 | 0.00 | 0.00 | 0.00 | 73 | 1008.9 |
| 20260505184923 | 82 | 344 | 2.0 | 4.0 | 0.00 | 0.00 | 0.00 | 73 | 1008.8 |
| 20260505184420 | 82 | 266 | 3.0 | 6.0 | 0.00 | 0.00 | 0.00 | 73 | 1009.0 |
| 20260505183916 | 83 | 220 | 2.0 | 5.0 | 0.00 | 0.00 | 0.00 | 73 | 1008.9 |
| 20260505183413 | 83 | 196 | 2.0 | 6.0 | 0.00 | 0.00 | 0.00 | 71 | 1009.1 |
| 20260505182910 | 83 | 277 | 5.0 | 5.0 | 0.00 | 0.00 | 0.00 | 72 | 1009.1 |
| 20260505182407 | 83 | 41 | 2.0 | 7.0 | 0.00 | 0.00 | 0.00 | 72 | 1008.9 |
| 20260505181903 | 82 | 293 | 2.0 | 6.0 | 0.00 | 0.00 | 0.00 | 75 | 1008.9 |
| 20260505181401 | 82 | 230 | 2.0 | 5.0 | 0.00 | 0.00 | 0.00 | 74 | 1009.1 |
| 20260505180857 | 81 | 250 | 2.0 | 4.0 | 0.00 | 0.00 | 0.00 | 75 | 1009.3 |
| 20260505180354 | 81 | 210 | 1.0 | 4.0 | 0.00 | 0.00 | 0.00 | 75 | 1009.4 |
| 20260505175850 | 81 | 326 | 2.0 | 3.0 | 0.00 | 0.00 | 0.00 | 76 | 1009.5 |
| 20260505175347 | 81 | 239 | 2.0 | 6.0 | 0.00 | 0.00 | 0.00 | 76 | 1009.3 |
| 20260505174843 | 80 | 320 | 3.0 | 6.0 | 0.00 | 0.00 | 0.00 | 77 | 1009.2 |
| 20260505174341 | 80 | 288 | 1.0 | 4.0 | 0.00 | 0.00 | 0.00 | 78 | 1009.3 |
| 20260505173836 | 79 | 196 | 2.0 | 4.0 | 0.00 | 0.00 | 0.00 | 79 | 1009.2 |
| 20260505173333 | 79 | 343 | 3.0 | 5.0 | 0.00 | 0.00 | 0.00 | 79 | 1009.4 |
| 20260505172830 | 79 | 261 | 2.0 | 7.0 | 0.00 | 0.00 | 0.00 | 78 | 1009.6 |
| 20260505172328 | 79 | 273 | 2.0 | 5.0 | 0.00 | 0.00 | 0.00 | 79 | 1009.5 |
| 20260505171827 | 79 | 136 | 1.0 | 4.0 | 0.00 | 0.00 | 0.00 | 79 | 1009.7 |
| 20260505171325 | 78 | 219 | 3.0 | 5.0 | 0.00 | 0.00 | 0.00 | 81 | 1009.5 |
| 20260505170821 | 78 | 228 | 3.0 | 5.0 | 0.00 | 0.00 | 0.00 | 82 | 1009.7 |
| 20260505170318 | 77 | 229 | 3.0 | 6.0 | 0.00 | 0.00 | 0.00 | 83 | 1009.7 |
| 20260505165814 | 77 | 248 | 3.0 | 6.0 | 0.00 | 0.00 | 0.00 | 83 | 1009.7 |
| 20260505165309 | 77 | 336 | 3.0 | 5.0 | 0.00 | 0.00 | 0.00 | 84 | 1009.6 |
| 20260505164805 | 76 | 231 | 4.0 | 5.0 | 0.00 | 0.00 | 0.00 | 84 | 1009.6 |
| 20260505164303 | 76 | 247 | 2.0 | 5.0 | 0.00 | 0.00 | 0.00 | 85 | 1009.6 |
| 20260505163801 | 75 | 240 | 3.0 | 3.0 | 0.00 | 0.00 | 0.00 | 86 | 1009.8 |
| 20260505163259 | 75 | 325 | 3.0 | 3.0 | 0.00 | 0.00 | 0.00 | 86 | 1009.7 |
| 20260505162756 | 75 | 70 | 1.0 | 3.0 | 0.00 | 0.00 | 0.00 | 86 | 1009.5 |
| 20260505162253 | 75 | 257 | 0.0 | 4.0 | 0.00 | 0.00 | 0.00 | 87 | 1009.5 |
| 20260505161750 | 74 | 302 | 2.0 | 4.0 | 0.00 | 0.00 | 0.00 | 88 | 1009.4 |
| 20260505161247 | 74 | 50 | 1.0 | 3.0 | 0.00 | 0.00 | 0.00 | 88 | 1009.4 |
| 20260505160744 | 74 | 303 | 1.0 | 2.0 | 0.00 | 0.00 | 0.00 | 88 | 1009.7 |
| 20260505160242 | 74 | 359 | 2.0 | 4.0 | 0.00 | 0.00 | 0.00 | 88 | 1009.7 |
| 20260505153221 | 73 | 344 | 0.0 | 3.0 | 0.00 | 0.00 | 0.00 | 91 | 1009.3 |
| 20260505152718 | 73 | 23 | 1.0 | 3.0 | 0.00 | 0.00 | 0.00 | 91 | 1009.4 |
| 20260505152214 | 72 | 317 | 1.0 | 5.0 | 0.00 | 0.00 | 0.00 | 92 | 1009.5 |
| 20260505151709 | 72 | 225 | 2.0 | 3.0 | 0.00 | 0.00 | 0.00 | 93 | 1009.5 |
| 20260505151207 | 71 | 339 | 1.0 | 3.0 | 0.00 | 0.00 | 0.00 | 94 | 1009.8 |
| 20260505150703 | 71 | 82 | 1.0 | 4.0 | 0.00 | 0.00 | 0.00 | 94 | 1009.5 |
| 20260505150200 | 71 | 257 | 2.0 | 5.0 | 0.00 | 0.00 | 0.00 | 95 | 1009.6 |
| 20260505140633 | 70 | 251 | 2.0 | 4.0 | 0.00 | 0.00 | 0.00 | 95 | 1009.5 |
| 20260505140131 | 70 | 288 | 3.0 | 4.0 | 0.00 | 0.00 | 0.00 | 94 | 1009.3 |
| 20260505124543 | 71 | 268 | 2.0 | 4.0 | 0.00 | 0.00 | 0.00 | 93 | 1008.7 |
| 20260505124040 | 70 | 152 | 4.0 | 7.0 | 0.00 | 0.00 | 0.00 | 93 | 1008.6 |
| 20260505123536 | 70 | 92 | 2.0 | 6.0 | 0.00 | 0.00 | 0.00 | 93 | 1008.6 |
| 20260505123032 | 70 | 296 | 4.0 | 4.0 | 0.00 | 0.00 | 0.00 | 93 | 1008.3 |
| 20260505122530 | 70 | 138 | 4.0 | 5.0 | 0.00 | 0.00 | 0.00 | 93 | 1008.5 |
| 20260505122026 | 70 | 346 | 2.0 | 4.0 | 0.00 | 0.00 | 0.00 | 93 | 1008.4 |
| 20260505121523 | 70 | 266 | 3.0 | 7.0 | 0.00 | 0.00 | 0.00 | 93 | 1008.4 |
| 20260505121020 | 70 | 262 | 3.0 | 5.0 | 0.00 | 0.00 | 0.00 | 93 | 1008.2 |
| 20260505120516 | 70 | 322 | 2.0 | 4.0 | 0.00 | 0.00 | 0.00 | 93 | 1008.3 |
| 20260505120012 | 70 | 152 | 2.0 | 5.0 | 0.00 | 0.00 | 0.00 | 93 | 1008.1 |
| 20260505115507 | 70 | 175 | 0.0 | 5.0 | 0.00 | 0.00 | 0.00 | 93 | 1008.0 |
| 20260505115005 | 70 | 91 | 1.0 | 3.0 | 0.00 | 0.00 | 0.00 | 93 | 1008.0 |
| 20260505114501 | 70 | 311 | 0.0 | 7.0 | 0.00 | 0.00 | 0.00 | 93 | 1008.3 |
| 20260505113958 | 70 | 92 | 0.0 | 4.0 | 0.00 | 0.00 | 0.00 | 93 | 1008.3 |
| 20260505113454 | 70 | 255 | 3.0 | 5.0 | 0.00 | 0.00 | 0.00 | 93 | 1008.4 |
| 20260505112950 | 70 | 125 | 0.0 | 5.0 | 0.00 | 0.00 | 0.00 | 93 | 1008.1 |
| 20260505112447 | 70 | 172 | 3.0 | 4.0 | 0.00 | 0.00 | 0.00 | 93 | 1008.0 |
| 20260505111944 | 70 | 73 | 4.0 | 7.0 | 0.00 | 0.00 | 0.00 | 94 | 1008.0 |
| 20260505111438 | 70 | 335 | 2.0 | 6.0 | 0.00 | 0.00 | 0.00 | 94 | 1008.2 |
| 20260505110935 | 70 | 48 | 2.0 | 5.0 | 0.00 | 0.00 | 0.00 | 94 | 1008.0 |
| 20260505110432 | 70 | 220 | 2.0 | 5.0 | 0.00 | 0.00 | 0.00 | 93 | 1007.9 |
| 20260505101903 | 69 | 260 | 0.0 | 3.0 | 0.00 | 0.00 | 0.00 | 94 | 1008.3 |
| 20260505101357 | 69 | 59 | 2.0 | 6.0 | 0.00 | 0.00 | 0.00 | 94 | 1008.3 |
| 20260505100854 | 69 | 310 | 2.0 | 4.0 | 0.00 | 0.00 | 0.00 | 94 | 1008.3 |
| 20260505100350 | 69 | 187 | 1.0 | 3.0 | 0.00 | 0.00 | 0.00 | 94 | 1008.5 |
| 20260505095846 | 69 | 225 | 1.0 | 5.0 | 0.00 | 0.00 | 0.00 | 94 | 1008.4 |
| 20260505095344 | 69 | 165 | 0.0 | 3.0 | 0.00 | 0.00 | 0.00 | 94 | 1008.2 |
| 20260505094839 | 69 | 132 | 3.0 | 3.0 | 0.00 | 0.00 | 0.00 | 94 | 1008.3 |
| 20260505094336 | 69 | 59 | 1.0 | 4.0 | 0.00 | 0.00 | 0.00 | 94 | 1008.4 |
| 20260505093832 | 69 | 177 | 3.0 | 5.0 | 0.00 | 0.00 | 0.00 | 94 | 1008.3 |
| 20260505093330 | 69 | 321 | 2.0 | 3.0 | 0.00 | 0.00 | 0.00 | 94 | 1008.3 |
| 20260505092826 | 69 | 354 | 2.0 | 5.0 | 0.00 | 0.00 | 0.00 | 94 | 1008.5 |
| 20260505092325 | 69 | 10 | 2.0 | 9.0 | 0.00 | 0.00 | 0.00 | 94 | 1008.4 |
| 20260505091822 | 69 | 221 | 1.0 | 6.0 | 0.00 | 0.00 | 0.00 | 94 | 1008.4 |
| 20260505091320 | 69 | 266 | 1.0 | 4.0 | 0.00 | 0.00 | 0.00 | 95 | 1008.7 |
| 20260505090818 | 69 | 220 | 0.0 | 2.0 | 0.00 | 0.00 | 0.00 | 95 | 1008.8 |
| 20260505090316 | 69 | 145 | 3.0 | 4.0 | 0.00 | 0.00 | 0.00 | 95 | 1008.5 |
| 20260505085812 | 68 | 304 | 0.0 | 3.0 | 0.00 | 0.00 | 0.00 | 95 | 1008.6 |
| 20260505085310 | 68 | 16 | 2.0 | 3.0 | 0.00 | 0.00 | 0.00 | 94 | 1008.6 |
| 20260505084808 | 68 | 192 | 1.0 | 6.0 | 0.00 | 0.00 | 0.00 | 94 | 1008.9 |
| 20260505084307 | 68 | 330 | 2.0 | 3.0 | 0.00 | 0.00 | 0.00 | 94 | 1008.7 |
| 20260505083803 | 68 | 149 | 2.0 | 4.0 | 0.00 | 0.00 | 0.00 | 94 | 1008.9 |
| 20260505083300 | 69 | 287 | 3.0 | 5.0 | 0.00 | 0.00 | 0.00 | 94 | 1008.8 |
| 20260505082756 | 69 | 63 | 2.0 | 3.0 | 0.00 | 0.00 | 0.00 | 94 | 1008.8 |
| 20260505082253 | 69 | 168 | 2.0 | 3.0 | 0.00 | 0.00 | 0.00 | 94 | 1009.0 |
| 20260505081749 | 69 | 35 | 2.0 | 3.0 | 0.00 | 0.00 | 0.00 | 94 | 1009.0 |
| 20260505081246 | 69 | 322 | 3.0 | 3.0 | 0.00 | 0.00 | 0.00 | 94 | 1009.1 |
| 20260505080743 | 69 | 259 | 3.0 | 5.0 | 0.00 | 0.00 | 0.00 | 94 | 1009.1 |
| 20260505080239 | 69 | 89 | 0.0 | 3.0 | 0.00 | 0.00 | 0.00 | 94 | 1009.1 |
| 20260505075735 | 69 | 0 | 0.0 | 4.0 | 0.00 | 0.00 | 0.00 | 94 | 1009.1 |
| 20260505075232 | 69 | 117 | 1.0 | 3.0 | 0.00 | 0.00 | 0.00 | 94 | 1009.3 |
| 20260505074729 | 69 | 81 | 2.0 | 4.0 | 0.00 | 0.00 | 0.00 | 93 | 1009.2 |
| 20260505074227 | 69 | 65 | 0.0 | 3.0 | 0.00 | 0.00 | 0.00 | 93 | 1009.3 |
| 20260505073724 | 69 | 255 | 2.0 | 5.0 | 0.00 | 0.00 | 0.00 | 93 | 1009.3 |
| 20260505073222 | 69 | 357 | 0.0 | 5.0 | 0.00 | 0.00 | 0.00 | 93 | 1009.3 |
| 20260505072718 | 69 | 327 | 3.0 | 4.0 | 0.00 | 0.00 | 0.00 | 93 | 1009.7 |
| 20260505072214 | 69 | 73 | 0.0 | 6.0 | 0.00 | 0.00 | 0.00 | 93 | 1009.5 |
| 20260505071709 | 69 | 92 | 1.0 | 4.0 | 0.00 | 0.00 | 0.00 | 92 | 1009.6 |
| 20260505071207 | 69 | 251 | 2.0 | 5.0 | 0.00 | 0.00 | 0.00 | 92 | 1009.7 |
| 20260505070705 | 69 | 207 | 2.0 | 4.0 | 0.00 | 0.00 | 0.00 | 92 | 1009.7 |
| 20260505070200 | 69 | 0 | 1.0 | 3.0 | 0.00 | 0.00 | 0.00 | 92 | 1009.8 |
| 20260505065656 | 69 | 151 | 0.0 | 3.0 | 0.00 | 0.00 | 0.00 | 92 | 1009.8 |
| 20260505065154 | 69 | 158 | 4.0 | 4.0 | 0.00 | 0.00 | 0.00 | 92 | 1010.0 |
| 20260505064650 | 69 | 228 | 3.0 | 3.0 | 0.00 | 0.00 | 0.00 | 92 | 1010.3 |
| 20260505064149 | 69 | 323 | 2.0 | 2.0 | 0.00 | 0.00 | 0.00 | 92 | 1010.4 |
| 20260505063646 | 69 | 147 | 1.0 | 2.0 | 0.00 | 0.00 | 0.00 | 92 | 1010.3 |
| 20260505063142 | 69 | 195 | 0.0 | 3.0 | 0.00 | 0.00 | 0.00 | 91 | 1010.1 |
| 20260505062638 | 69 | 244 | 2.0 | 3.0 | 0.00 | 0.00 | 0.00 | 91 | 1010.1 |
| 20260505062136 | 69 | 48 | 1.0 | 4.0 | 0.00 | 0.00 | 0.00 | 91 | 1010.6 |
| 20260505061632 | 69 | 49 | 1.0 | 5.0 | 0.00 | 0.00 | 0.00 | 91 | 1010.5 |
| 20260505061131 | 69 | 306 | 3.0 | 4.0 | 0.00 | 0.00 | 0.00 | 91 | 1010.3 |
| 20260505060628 | 69 | 155 | 3.0 | 3.0 | 0.00 | 0.00 | 0.00 | 90 | 1010.6 |
| 20260505060125 | 69 | 142 | 2.0 | 6.0 | 0.00 | 0.00 | 0.00 | 90 | 1010.5 |
| 20260505055620 | 70 | 312 | 3.0 | 4.0 | 0.00 | 0.00 | 0.00 | 90 | 1010.1 |
| 20260505055117 | 70 | 83 | 1.0 | 5.0 | 0.00 | 0.00 | 0.00 | 90 | 1010.5 |
| 20260505054614 | 70 | 29 | 1.0 | 4.0 | 0.00 | 0.00 | 0.00 | 89 | 1010.3 |
| 20260505054112 | 70 | 41 | 2.0 | 5.0 | 0.00 | 0.00 | 0.00 | 89 | 1010.4 |
| 20260505053609 | 70 | 281 | 2.0 | 4.0 | 0.00 | 0.00 | 0.00 | 89 | 1010.6 |
| 20260505053105 | 70 | 113 | 3.0 | 5.0 | 0.00 | 0.00 | 0.00 | 88 | 1010.5 |
| 20260505052603 | 70 | 344 | 1.0 | 6.0 | 0.00 | 0.00 | 0.00 | 88 | 1010.6 |
| 20260505052100 | 70 | 3 | 0.0 | 4.0 | 0.00 | 0.00 | 0.00 | 88 | 1010.4 |
| 20260505051557 | 71 | 47 | 2.0 | 4.0 | 0.00 | 0.00 | 0.00 | 88 | 1010.3 |
| 20260505051055 | 70 | 212 | 2.0 | 3.0 | 0.00 | 0.00 | 0.00 | 88 | 1010.3 |
| 20260505050552 | 70 | 181 | 2.0 | 6.0 | 0.00 | 0.00 | 0.00 | 88 | 1010.3 |
| 20260505041520 | 71 | 146 | 2.0 | 7.0 | 0.00 | 0.00 | 0.00 | 87 | 1010.5 |
| 20260505041018 | 71 | 85 | 2.0 | 4.0 | 0.00 | 0.00 | 0.00 | 87 | 1010.5 |
| 20260505040515 | 71 | 114 | 2.0 | 4.0 | 0.00 | 0.00 | 0.00 | 86 | 1010.3 |
| 20260505040012 | 72 | 221 | 2.0 | 5.0 | 0.00 | 0.00 | 0.00 | 86 | 1010.5 |
| 20260505035508 | 72 | 239 | 3.0 | 4.0 | 0.00 | 0.00 | 0.00 | 85 | 1010.5 |
| 20260505035005 | 72 | 244 | 3.0 | 6.0 | 0.00 | 0.00 | 0.00 | 86 | 1010.4 |
| 20260505034501 | 72 | 295 | 2.0 | 3.0 | 0.00 | 0.00 | 0.00 | 86 | 1010.4 |
| 20260505033958 | 72 | 154 | 2.0 | 5.0 | 0.00 | 0.00 | 0.00 | 86 | 1010.4 |
| 20260505033455 | 72 | 162 | 3.0 | 3.0 | 0.00 | 0.00 | 0.00 | 86 | 1010.4 |
| 20260505032954 | 72 | 326 | 1.0 | 5.0 | 0.00 | 0.00 | 0.00 | 86 | 1010.3 |
| 20260505032451 | 72 | 312 | 1.0 | 4.0 | 0.00 | 0.00 | 0.00 | 86 | 1010.3 |
| 20260505031947 | 72 | 287 | 2.0 | 6.0 | 0.00 | 0.00 | 0.00 | 85 | 1010.6 |
| 20260505031444 | 72 | 208 | 3.0 | 3.0 | 0.00 | 0.00 | 0.00 | 84 | 1010.5 |
| 20260505030941 | 72 | 101 | 0.0 | 5.0 | 0.00 | 0.00 | 0.00 | 84 | 1010.5 |
| 20260505030437 | 72 | 174 | 0.0 | 2.0 | 0.00 | 0.00 | 0.00 | 84 | 1010.8 |
| 20260505025932 | 73 | 1 | 0.0 | 2.0 | 0.00 | 0.00 | 0.00 | 84 | 1010.6 |
| 20260505025430 | 73 | 203 | 1.0 | 3.0 | 0.00 | 0.00 | 0.00 | 83 | 1010.8 |
| 20260505024928 | 73 | 102 | 0.0 | 2.0 | 0.00 | 0.00 | 0.00 | 82 | 1010.5 |
| 20260505024425 | 73 | 240 | 0.0 | 6.0 | 0.00 | 0.00 | 0.00 | 82 | 1010.3 |
| 20260505023922 | 73 | 178 | 0.0 | 2.0 | 0.00 | 0.00 | 0.00 | 81 | 1010.4 |
| 20260505023419 | 74 | 234 | 0.0 | 3.0 | 0.00 | 0.00 | 0.00 | 81 | 1010.6 |
| 20260505022917 | 74 | 31 | 1.0 | 3.0 | 0.00 | 0.00 | 0.00 | 80 | 1010.3 |
| 20260505022414 | 74 | 230 | 0.0 | 3.0 | 0.00 | 0.00 | 0.00 | 80 | 1010.4 |
| 20260505021911 | 74 | 37 | 0.0 | 5.0 | 0.00 | 0.00 | 0.00 | 79 | 1010.1 |
| 20260505021407 | 74 | 224 | 1.0 | 4.0 | 0.00 | 0.00 | 0.00 | 79 | 1010.0 |
| 20260505020903 | 74 | 222 | 2.0 | 4.0 | 0.00 | 0.00 | 0.00 | 79 | 1009.8 |
| 20260505020359 | 74 | 208 | 3.0 | 4.0 | 0.00 | 0.00 | 0.00 | 79 | 1009.8 |
| 20260505015856 | 75 | 17 | 1.0 | 2.0 | 0.00 | 0.00 | 0.00 | 78 | 1009.8 |
| 20260505015353 | 75 | 269 | 0.0 | 4.0 | 0.00 | 0.00 | 0.00 | 78 | 1009.7 |
| 20260505014850 | 75 | 216 | 0.0 | 3.0 | 0.00 | 0.00 | 0.00 | 78 | 1009.7 |
| 20260505014347 | 75 | 210 | 0.0 | 4.0 | 0.00 | 0.00 | 0.00 | 77 | 1009.8 |
| 20260505013844 | 75 | 217 | 3.0 | 3.0 | 0.00 | 0.00 | 0.00 | 76 | 1009.9 |
| 20260505013341 | 76 | 254 | 1.0 | 3.0 | 0.00 | 0.00 | 0.00 | 76 | 1009.8 |
| 20260505012839 | 76 | 229 | 2.0 | 4.0 | 0.00 | 0.00 | 0.00 | 75 | 1010.0 |
| 20260505012337 | 76 | 244 | 0.0 | 3.0 | 0.00 | 0.00 | 0.00 | 75 | 1009.7 |
| 20260505011833 | 76 | 209 | 2.0 | 5.0 | 0.00 | 0.00 | 0.00 | 74 | 1009.7 |
| 20260505011330 | 77 | 147 | 2.0 | 4.0 | 0.00 | 0.00 | 0.00 | 73 | 1009.7 |
| 20260505010826 | 77 | 9 | 1.0 | 4.0 | 0.00 | 0.00 | 0.00 | 73 | 1009.3 |
| 20260505010322 | 77 | 214 | 0.0 | 4.0 | 0.00 | 0.00 | 0.00 | 72 | 1009.7 |
| 20260505005818 | 77 | 168 | 3.0 | 6.0 | 0.00 | 0.00 | 0.00 | 71 | 1009.7 |
| 20260505005315 | 78 | 241 | 3.0 | 6.0 | 0.00 | 0.00 | 0.00 | 71 | 1009.6 |
| 20260505004813 | 78 | 61 | 2.0 | 7.0 | 0.00 | 0.00 | 0.00 | 70 | 1009.8 |
| 20260505004308 | 78 | 329 | 3.0 | 6.0 | 0.00 | 0.00 | 0.00 | 69 | 1009.6 |
| 20260505003806 | 79 | 311 | 2.0 | 7.0 | 0.00 | 0.00 | 0.00 | 68 | 1009.6 |
| 20260505003303 | 79 | 272 | 1.0 | 6.0 | 0.00 | 0.00 | 0.00 | 67 | 1009.8 |
| 20260505002759 | 80 | 321 | 3.0 | 5.0 | 0.00 | 0.00 | 0.00 | 66 | 1009.6 |
| 20260505002257 | 80 | 208 | 3.0 | 3.0 | 0.00 | 0.00 | 0.00 | 65 | 1009.6 |
| 20260505001755 | 80 | 256 | 6.0 | 6.0 | 0.00 | 0.00 | 0.00 | 65 | 1009.4 |
| 20260505001252 | 80 | 271 | 3.0 | 5.0 | 0.00 | 0.00 | 0.00 | 64 | 1009.3 |
| 20260505000749 | 81 | 245 | 2.0 | 5.0 | 0.00 | 0.00 | 0.00 | 63 | 1009.6 |
| 20260505000247 | 81 | 323 | 2.0 | 7.0 | 0.00 | 0.00 | 0.00 | 63 | 1009.7 |
| 20260504235743 | 82 | 149 | 3.0 | 5.0 | 0.00 | 0.00 | 0.00 | 62 | 1009.6 |
| 20260504235239 | 82 | 304 | 2.0 | 5.0 | 0.00 | 0.00 | 0.00 | 61 | 1009.7 |